Weather History for Rome, OR

Change the Weather History Date:

Saturday, January 19, 2013

  Actual Average Record
Temperature  
Mean Temperature 13 °F 30 °F  
Max Temperature 28 °F 39 °F 54 °F (1971)
Min Temperature -3 °F 20 °F -10 °F (1984)
Degree Days  
Heating Degree Days 52 35  
Month to date heating degree days 995 685  
Since 1 July heating degree days 3352 3432  
Cooling Degree Days 0 0  
Month to date cooling degree days 0 0  
Year to date cooling degree days 0 0  
Moisture  
Dew Point 5 °F    
Average Humidity 71    
Maximum Humidity 91    
Minimum Humidity 50    
Precipitation  
Precipitation 0.00 in 0.02 in 0.91 in (1969)
Month to date precipitation 0.22 0.42  
Year to date precipitation 0.22 0.42  
Sea Level Pressure  
Sea Level Pressure 30.63 in    
Wind  
Wind Speed 3 mph (ENE)    
Max Wind Speed 9 mph    
Max Gust Speed 10 mph    
T = Trace of Precipitation, MM = Missing Value Source: NWS Daily Summary

Daily Weather History Graph

Daily Weather History Graph

Search for Another Location

Airport:

Trip Planner

Search our weather history database for the weather conditions in past years. The results will help you decide how hot, cold, wet, or windy it might be!

Date:

Astronomy

Jan. 19, 2013 Rise Set
Actual Time 7:16 AM PST 4:48 PM PST
Civil Twilight 6:45 AM PST 5:19 PM PST
Nautical Twilight 6:10 AM PST 5:54 PM PST
Astronomical Twilight 5:37 AM PST 6:27 PM PST
Moon 11:18 AM PST (1/19) 12:53 AM PST (1/19)
Length of Visible Light 10h 34m
Length of Day
9h 32m
First Quarter, 58% of the Moon is Illuminated
Jan 19
First Quarter
Jan 26
Full
Feb 3
Last Quarter
Feb 9
New
Feb 17
First Quarter

Hourly Weather History & Observations

Time (PST) Temp. Windchill Dew Point Humidity Pressure Visibility Wind Dir Wind Speed Gust Speed Precip Events Conditions
12:52 AM 1.9 °F -5.6 °F -2.0 °F 83% 30.59 in - SW 3.5 mph - N/A   Unknown
1:52 AM 3.9 °F -5.3 °F 1.0 °F 88% 30.59 in - ENE 4.6 mph - N/A   Unknown
2:52 AM -0.0 °F -9.9 °F -2.9 °F 88% 30.61 in - SW 4.6 mph - N/A   Unknown
3:52 AM 1.0 °F -8.7 °F -2.9 °F 83% 30.61 in - SW 4.6 mph - N/A   Unknown
4:52 AM 3.0 °F - -0.9 °F 84% 30.62 in - Calm Calm - N/A   Unknown
5:52 AM 3.0 °F - -0.0 °F 87% 30.64 in - Calm Calm - N/A   Unknown
6:52 AM 1.0 °F - -2.0 °F 87% 30.67 in - Calm Calm - N/A   Unknown
7:52 AM 3.0 °F - -0.0 °F 87% 30.69 in - Calm Calm - N/A   Unknown
8:52 AM 10.0 °F - 6.1 °F 84% 30.69 in - Calm Calm - N/A   Unknown
9:52 AM 15.1 °F - 9.0 °F 77% 30.69 in - Calm Calm - N/A   Unknown
10:52 AM 19.9 °F - 9.0 °F 62% 30.66 in - Calm Calm - N/A   Unknown
11:52 AM 23.0 °F 18.4 °F 10.0 °F 58% 30.62 in - NNE 3.5 mph - N/A   Unknown
12:52 PM 25.0 °F 19.3 °F 10.9 °F 55% 30.61 in - NE 4.6 mph - N/A   Unknown
1:52 PM 27.0 °F 20.5 °F 12.9 °F 56% 30.58 in - NE 5.8 mph - N/A   Unknown
2:52 PM 28.0 °F 20.8 °F 12.0 °F 51% 30.59 in - NNE 6.9 mph - N/A   Unknown
3:52 PM 24.1 °F 16.0 °F 10.9 °F 57% 30.60 in - NNE 6.9 mph - N/A   Unknown
4:52 PM 19.0 °F 8.2 °F 10.0 °F 68% 30.60 in - ENE 9.2 mph - N/A   Unknown
5:52 PM 15.1 °F 7.7 °F 7.0 °F 70% 30.62 in - ENE 4.6 mph - N/A   Unknown
6:52 PM 10.9 °F 1.4 °F 6.1 °F 81% 30.63 in - SSW 5.8 mph - N/A   Unknown
7:52 PM 10.9 °F 4.7 °F 6.1 °F 81% 30.64 in - SSE 3.5 mph - N/A   Unknown
8:52 PM 7.0 °F - 3.9 °F 87% 30.64 in - Calm Calm - N/A   Unknown
9:52 PM 6.1 °F -5.6 °F 1.9 °F 83% 30.63 in - NE 6.9 mph - N/A   Unknown
10:52 PM 3.9 °F -3.4 °F -0.0 °F 84% 30.63 in - East 3.5 mph - N/A   Unknown
11:52 PM 6.1 °F - 3.0 °F 87% 30.61 in - Calm Calm - N/A   Unknown